Flag for Canada Weather past 2 weeks in Stephenville, Newfoundland and Labrador, Canada

Now
66 °F

Passing clouds.


Feels Like: 66 °F
Forecast: 67 / 78 °F
Wind: 10 mph from East

Location: Stephenville

Current Time: Jul 29, 2014 at 3:25:45 AM

Latest Report: Jul 29, 2014 at 2:30 AM


Visibility: 15 mi

Pressure: 29.95 "Hg

Humidity: 73%

Dew point: 57 °F

Location of StephenvilleLocation

Historic Weather in Stephenville — Graph

°F

Stephenville temperature yesterday

Maximum temperature yesterday: 77 °F (at 2:30 PM)
Minimum temperature yesterday: 66 °F (at 4:30 AM)
Average temperature yesterday: 71 °F

Past Weeks' High & Low Weather Summary

 TemperatureHumidityPressure
High77 °F (Jul 27, 3:30 PM)94% (Jul 14, 10:30 PM)30.28 "Hg (Jul 14, 10:30 PM)
Low54 °F (Jul 20, 5:30 AM)41% (Jul 21, 3:30 PM)29.65 "Hg (Jul 24, 3:30 AM)
Average67 °F75%29.94 "Hg
* Reported Jul 14 1:30 AM — Jul 29 1:30 AM, Stephenville, Weather by CustomWeather, © 2014

Note: Actual official high and low records may vary slightly from our data, if they occured in-between our weather recording intervals... More about our weather records

Advertising

Stephenville weather history for previous 24 hours

 ConditionsComfort  
Time TempWeatherWind HumidityBarometerVisibility
1:30 AM
Jul 29
66 °FMostly cloudy.14 mph78%29.97 "Hg15 mi
1:16 AMN/AMostly cloudy.12 mphN/AN/A15 mi
12:30 AM66 °FSprinkles. Mostly cloudy.12 mph83%29.99 "Hg15 mi
11:30 PM
Jul 28
68 °FMostly cloudy.15 mph73%30.00 "Hg15 mi
10:30 PM70 °FPartly cloudy.12 mph69%30.01 "Hg15 mi
9:30 PM70 °FBroken clouds.17 mph64%30.01 "Hg15 mi
8:30 PM72 °FBroken clouds.18 mph61%30.00 "Hg15 mi
7:30 PM73 °FPartly sunny.14 mph57%30.00 "Hg15 mi
5:30 PM73 °FBroken clouds.14 mph57%30.01 "Hg15 mi
4:30 PM75 °FPartly sunny.17 mph54%30.00 "Hg15 mi
3:30 PM75 °FPartly sunny.18 mph54%30.01 "Hg15 mi
2:30 PM77 °FPartly sunny.21 mph54%30.01 "Hg15 mi
1:30 PM75 °FPartly sunny.17 mph54%30.02 "Hg15 mi
12:30 PM75 °FPartly sunny.17 mph54%30.03 "Hg15 mi
11:30 AM73 °FBroken clouds.17 mph61%30.04 "Hg15 mi
10:30 AM72 °FBroken clouds.15 mph61%30.02 "Hg15 mi
9:30 AM72 °FPartly sunny.12 mph65%30.02 "Hg15 mi
8:30 AM70 °FPartly sunny.14 mph69%30.02 "Hg15 mi
7:30 AM68 °FBroken clouds.8 mph69%30.02 "Hg15 mi
6:30 AM68 °FBroken clouds.7 mph69%30.02 "Hg15 mi
5:30 AM68 °FPassing clouds.12 mph69%30.01 "Hg15 mi
4:30 AM66 °FPassing clouds.12 mph78%30.01 "Hg15 mi
3:30 AM68 °FPassing clouds.12 mph69%30.01 "Hg15 mi
Weather by CustomWeather, © 2014

See weather overviewHow to use our weather pages